Edithburgh AWS, Australia

3:57 AM ACDT on February 20, 2017 (GMT +1030)
Edithburgh AWS

Weather History for 94809 - October, 2013

Change the Weather History Date:

Friday, October 4, 2013

  Actual Average Record
Temperature  
Mean Temperature 58 °F -  
Max Temperature 76 °F - - ()
Min Temperature 39 °F - - ()
Degree Days  
Heating Degree Days 8    
Growing Degree Days 8 (Base 50)    
Moisture  
Dew Point 44 °F    
Average Humidity 63    
Maximum Humidity 92    
Minimum Humidity 12    
Precipitation  
Precipitation 0.00 in - - ()
Sea Level Pressure  
Sea Level Pressure 30.06 in    
Wind  
Wind Speed 7 mph ()    
Max Wind Speed 16 mph    
Max Gust Speed -    
T = Trace of Precipitation, MM = Missing Value Source: Averaged Metar Reports

Daily Weather History Graph

Daily Weather History Graph

Search for Another Location

Airport or City:

Trip Planner

Search our weather history database for the weather conditions in past years. The results will help you decide how hot, cold, wet, or windy it might be!

Date:

Astronomy

Oct. 04, 2013 Rise Set
Actual Time 5:51 AM ACST 6:24 PM ACST
Civil Twilight 5:26 AM ACST 6:49 PM ACST
Nautical Twilight 4:56 AM ACST 7:20 PM ACST
Astronomical Twilight 4:25 AM ACST 7:50 PM ACST
Moon 5:04 AM ACST (10/4) 5:42 PM ACST (10/4)
Length of Visible Light 13h 23m
Length of Day
12h 32m
Waning Crescent, 1% of the Moon is Illuminated
Oct 4
Waning Crescent
Oct 5
New
Oct 12
First Quarter
Oct 19
Full
Oct 27
Last Quarter

Hourly Weather History & Observations

Time (ACST) Temp. Dew Point Humidity Pressure Visibility Wind Dir Wind Speed Gust Speed Precip Events Conditions
1:30 AM 43 °F 41 °F 90% 30.24 in - NNW 4.6 mph - -  
2:30 AM 44 °F 42 °F 88% 30.21 in - North 4.6 mph - -  
3:00 AM 41 °F 39 °F 92% 30.19 in - North 5.8 mph - -  
4:30 AM 41 °F 39 °F 91% 30.17 in - North 5.8 mph - -  
5:30 AM 40 °F 38 °F 92% 30.15 in - North 6.9 mph - -  
6:00 AM 40 °F 38 °F 89% 30.16 in - North 6.9 mph - -  
7:30 AM 53 °F 51 °F 92% 30.16 in - North 4.6 mph - -  
8:30 AM 58 °F 51 °F 69% 30.16 in - NNE 8.1 mph - -  
10:30 AM 65 °F 54 °F 59% 30.12 in - NNE 9.2 mph - -  
11:30 AM 73 °F 38 °F 18% 30.09 in - NNW 16.1 mph - -  
12:00 PM 73 °F 37 °F 17% 30.08 in - NNW 16.1 mph - -  
2:30 PM 76 °F 34 °F 12% 29.99 in - NNW 16.1 mph - -  
3:00 PM 76 °F 33 °F 12% 29.99 in - NNW 15.0 mph - -  
4:30 PM 76 °F 37 °F 15% 29.95 in - NNW 12.7 mph - -  
5:30 PM 65 °F 55 °F 61% 29.96 in - NE 4.6 mph - -  
6:00 PM 63 °F 55 °F 68% 29.96 in - NNE 3.5 mph - -  
7:30 PM 61 °F 56 °F 78% 29.94 in - NNE 5.8 mph - -  
8:30 PM 62 °F 56 °F 75% 29.93 in - NNE 8.1 mph - -  
10:30 PM 51 °F 46 °F 78% 29.91 in - North 4.6 mph - -  
11:30 PM 54 °F 44 °F 58% 29.88 in - North 9.2 mph - -